GW719 Weather Reports


time (UTC)temp
C
wind
direction
speed
KPH
gust
KPH
rain 1hr
cm
rain 24hr
cm
rain mn
cm
humidity
%
barometer
mb
20260507125519 10 30 0.0 1.6 0.00 0.00 0.00 78 1018.1
20260507124518 9 0.0 0.0 0.00 0.00 0.00 82 1018.0
20260507123519 8 277 0.0 3.2 0.00 0.00 0.00 91 1018.1
20260507122515 6 241 0.0 3.2 0.00 0.00 0.00 94 1018.1
20260507121516 6 258 0.0 3.2 0.00 0.00 0.00 95 1018.2
20260507120516 6 0.0 0.0 0.00 0.00 0.00 95 1018.1
20260507115516 5 143 0.0 1.6 0.00 0.00 0.00 96 1017.9
20260507114516 5 0.0 0.0 0.00 0.00 0.00 96 1018.1
20260507113516 5 0.0 0.0 0.00 0.00 0.00 96 1018.0
20260507112516 5 72 0.0 1.6 0.00 0.00 0.00 95 1017.9
20260507111537 5 0.0 0.0 0.00 0.00 0.00 95 1018.0
20260507110517 5 0.0 0.0 0.00 0.00 0.00 95 1018.0
20260507105517 5 0.0 0.0 0.00 0.00 0.00 94 1017.8
20260507104539 6 74 0.0 1.6 0.00 0.00 0.00 94 1017.9
20260507103517 6 0.0 0.0 0.00 0.00 0.00 94 1017.9
20260507102518 6 43 0.0 1.6 0.00 0.00 0.00 94 1017.8
20260507101518 6 29 0.0 3.2 0.00 0.00 0.00 94 1017.8
20260507100518 6 33 0.0 1.6 0.00 0.00 0.00 94 1017.9
20260507095538 6 32 0.0 1.6 0.00 0.00 0.00 93 1017.7
20260507094518 6 44 0.0 1.6 0.00 0.00 0.00 92 1017.7
20260507093518 6 0.0 0.0 0.00 0.00 0.00 92 1017.6
20260507092519 6 249 0.0 1.6 0.00 0.00 0.00 92 1017.7
20260507091515 6 185 0.0 3.2 0.00 0.00 0.00 93 1017.6
20260507090516 6 0.0 0.0 0.00 0.00 0.00 92 1017.8
20260507085516 6 196 0.0 1.6 0.00 0.00 0.00 92 1017.8
20260507084516 6 47 0.0 1.6 0.00 0.00 0.00 92 1017.9
20260507083518 6 0.0 0.0 0.00 0.00 0.00 92 1018.0
20260507082516 6 26 0.0 6.4 0.00 0.00 0.00 92 1018.0
20260507081516 6 32 0.0 1.6 0.00 0.00 0.00 91 1017.9
20260507080517 6 58 0.0 1.6 0.00 0.00 0.00 90 1017.9
20260507075517 6 43 0.0 3.2 0.00 0.00 0.00 90 1017.8
20260507074517 7 0.0 0.0 0.00 0.00 0.00 89 1017.7
20260507073517 7 0.0 0.0 0.00 0.00 0.00 87 1018.1
20260507072517 7 0.0 0.0 0.00 0.00 0.00 87 1017.9
20260507071517 7 60 0.0 1.6 0.00 0.00 0.00 85 1017.9
20260507070518 7 237 0.0 1.6 0.00 0.00 0.00 85 1018.3
20260507065518 7 55 0.0 0.0 0.00 0.00 0.00 85 1018.2
20260507064518 7 50 0.0 1.6 0.00 0.00 0.00 84 1018.4
20260507063518 8 68 0.0 3.2 0.00 0.00 0.00 84 1018.3
20260507062518 8 28 0.0 1.6 0.00 0.00 0.00 83 1018.3
20260507061515 8 45 0.0 1.6 0.00 0.00 0.00 82 1018.2
20260507060536 8 44 0.0 1.6 0.00 0.00 0.00 81 1018.1
20260507055518 8 262 0.0 3.2 0.00 0.00 0.00 81 1018.0
20260507054536 9 333 0.0 0.0 0.00 0.00 0.00 81 1017.8
20260507053516 9 8 0.0 1.6 0.00 0.00 0.00 79 1017.9
20260507052516 9 348 0.0 0.0 0.00 0.00 0.00 78 1017.9
20260507051517 9 0.0 0.0 0.00 0.00 0.00 76 1017.8
20260507050517 10 0.0 0.0 0.00 0.00 0.00 74 1017.8
20260507045537 10 0.0 0.0 0.00 0.00 0.00 73 1017.8
20260507044517 10 267 0.0 1.6 0.00 0.00 0.00 72 1017.7
20260507043517 10 0.0 0.0 0.00 0.00 0.00 71 1017.7
20260507042537 11 0.0 0.0 0.00 0.00 0.00 70 1017.7
20260507041517 11 0.0 0.0 0.00 0.00 0.00 67 1017.6
20260507040518 11 0.0 0.0 0.00 0.00 0.00 64 1017.6
20260507035518 12 0.0 0.0 0.00 0.00 0.00 62 1017.6
20260507034518 12 0.0 0.0 0.00 0.00 0.00 61 1017.6
20260507033518 12 0.0 0.0 0.00 0.00 0.00 60 1017.4
20260507032518 13 347 0.0 1.6 0.00 0.00 0.00 58 1017.4
20260507031516 13 0.0 0.0 0.00 0.00 0.00 57 1017.3
20260507030536 13 354 0.0 3.2 0.00 0.00 0.00 55 1017.2
20260507025518 13 350 1.6 3.2 0.00 0.00 0.00 54 1017.0
20260507024516 14 7 1.6 3.2 0.00 0.00 0.00 54 1016.9
20260507023516 14 8 1.6 4.8 0.00 0.00 0.00 53 1016.8
20260507022517 14 12 3.2 6.4 0.00 0.00 0.00 52 1016.6
20260507021517 15 21 3.2 6.4 0.00 0.00 0.00 52 1016.6
20260507020517 15 14 1.6 6.4 0.00 0.00 0.00 53 1016.6
20260507015517 15 9 1.6 4.8 0.00 0.00 0.00 52 1016.4
20260507014517 15 10 1.6 4.8 0.00 0.00 0.00 52 1016.2
20260507013518 15 18 3.2 4.8 0.00 0.00 0.00 51 1016.1
20260507012538 15 11 3.2 6.4 0.00 0.00 0.00 50 1015.9
20260507011518 16 19 3.2 6.4 0.00 0.00 0.00 49 1015.8
20260507010517 16 18 1.6 3.2 0.00 0.00 0.00 49 1015.7
20260507005518 16 51 1.6 6.4 0.00 0.00 0.00 49 1015.5
20260507004518 16 29 3.2 6.4 0.00 0.00 0.00 48 1015.4
20260507003556 16 56 3.2 11.3 0.00 0.00 0.00 48 1015.2
20260507002516 16 36 1.6 6.4 0.00 0.00 0.00 47 1015.2
20260507001516 16 58 4.8 9.7 0.00 0.00 0.00 48 1015.1
20260507000516 17 29 1.6 6.4 0.00 0.00 0.00 48 1015.2
20260506235516 17 28 4.8 9.7 0.00 0.00 0.00 47 1015.1
20260506234516 17 77 8.0 14.5 0.00 0.00 0.00 47 1015.0
20260506233516 17 28 1.6 8.0 0.00 0.00 0.00 48 1015.1
20260506232517 17 16 4.8 11.3 0.00 0.00 0.00 47 1014.9
20260506231517 17 35 4.8 11.3 0.00 0.00 0.00 47 1014.9
20260506230517 17 12 3.2 8.0 0.00 0.00 0.00 47 1014.9
20260506225517 17 29 4.8 11.3 0.00 0.00 0.00 47 1014.9
20260506224517 17 25 6.4 11.3 0.00 0.00 0.00 47 1014.8
20260506223518 18 17 4.8 12.9 0.00 0.00 0.00 47 1014.3
20260506222518 18 22 4.8 9.7 0.00 0.00 0.00 47 1014.3
20260506221518 18 42 4.8 14.5 0.00 0.00 0.00 46 1014.0
20260506220518 18 62 8.0 17.7 0.00 0.00 0.00 45 1014.0
20260506215518 18 0 4.8 11.3 0.00 0.00 0.00 46 1013.7
20260506214520 18 61 8.0 16.1 0.00 0.00 0.00 47 1013.9
20260506213515 18 36 4.8 14.5 0.00 0.00 0.00 45 1013.7
20260506212515 17 70 1.6 4.8 0.00 0.00 0.00 47 1013.6
20260506211516 17 30 4.8 12.9 0.00 0.00 0.00 48 1014.0
20260506210516 17 13 3.2 6.4 0.00 0.00 0.00 50 1014.0
20260506205516 17 18 3.2 8.0 0.00 0.00 0.00 51 1014.3
20260506204516 16 29 4.8 11.3 0.00 0.00 0.00 51 1014.5
20260506203516 17 48 6.4 17.7 0.00 0.00 0.00 50 1014.6
20260506202516 17 19 3.2 11.3 0.00 0.00 0.00 51 1014.7
20260506201517 17 78 6.4 14.5 0.00 0.00 0.00 50 1014.6
20260506200517 17 22 4.8 11.3 0.00 0.00 0.00 51 1014.9
20260506195517 17 25 4.8 12.9 0.00 0.00 0.00 51 1014.9
20260506194537 17 25 6.4 11.3 0.00 0.00 0.00 51 1014.9
20260506193537 17 19 3.2 8.0 0.00 0.00 0.00 50 1014.3
20260506192518 17 28 4.8 11.3 0.00 0.00 0.00 52 1014.8
20260506191518 17 33 4.8 12.9 0.00 0.00 0.00 51 1014.9
20260506190518 17 18 4.8 9.7 0.00 0.00 0.00 52 1014.9
20260506185518 16 32 6.4 11.3 0.00 0.00 0.00 51 1015.1
20260506184538 16 28 4.8 11.3 0.00 0.00 0.00 52 1015.3
20260506183518 16 66 6.4 17.7 0.00 0.00 0.00 51 1015.6
20260506182516 16 21 6.4 12.9 0.00 0.00 0.00 51 1015.6
20260506181516 16 54 4.8 11.3 0.00 0.00 0.00 51 1015.8
20260506180516 16 57 6.4 14.5 0.00 0.00 0.00 52 1015.9
20260506175518 16 73 6.4 14.5 0.00 0.00 0.00 51 1015.4
20260506174536 16 85 9.7 16.1 0.00 0.00 0.00 52 1015.5
20260506173557 16 41 6.4 16.1 0.00 0.00 0.00 53 1015.9
20260506172516 16 46 4.8 11.3 0.00 0.00 0.00 53 1016.2
20260506171517 16 58 6.4 14.5 0.00 0.00 0.00 54 1016.1
20260506170517 16 72 8.0 14.5 0.00 0.00 0.00 53 1016.3
20260506165517 15 110 6.4 12.9 0.00 0.00 0.00 55 1016.5
20260506164517 15 92 6.4 12.9 0.00 0.00 0.00 56 1016.5
20260506163538 13 94 4.8 16.1 0.00 0.00 0.00 58 1016.5
20260506162517 13 69 6.4 16.1 0.00 0.00 0.00 58 1016.8
20260506161518 13 69 8.0 16.1 0.00 0.00 0.00 58 1016.5
20260506160538 13 57 6.4 16.1 0.00 0.00 0.00 59 1016.7
20260506155518 13 27 4.8 12.9 0.00 0.00 0.00 59 1016.5
20260506154518 13 18 4.8 9.7 0.00 0.00 0.00 59 1016.0
20260506153518 13 75 8.0 16.1 0.00 0.00 0.00 58 1015.9
20260506152536 12 66 6.4 16.1 0.00 0.00 0.00 60 1015.5
20260506151516 12 62 6.4 14.5 0.00 0.00 0.00 61 1015.3
20260506150516 12 53 8.0 16.1 0.00 0.00 0.00 62 1015.3
20260506145516 12 75 9.7 17.7 0.00 0.00 0.00 62 1015.3
20260506144516 11 62 6.4 14.5 0.00 0.00 0.00 64 1015.4
20260506143516 11 70 9.7 22.5 0.00 0.00 0.00 64 1015.6
20260506142517 11 73 9.7 22.5 0.00 0.00 0.00 66 1015.3
20260506141517 11 50 8.0 14.5 0.00 0.00 0.00 68 1015.4
20260506135517 10 47 6.4 14.5 0.00 0.00 0.00 71 1015.6
20260506134517 10 44 6.4 14.5 0.00 0.00 0.00 71 1015.6
20260506133517 10 16 8.0 17.7 0.00 0.00 0.00 70 1015.8
20260506132517 10 25 6.4 12.9 0.00 0.00 0.00 71 1015.9
20260506131517 10 56 6.4 12.9 0.00 0.00 0.00 74 1015.7
20260506130517 10 47 4.8 11.3 0.00 0.00 0.00 76 1015.7